TimeMDT,TemperatureF,Dew PointF,Humidity,Sea Level PressureIn,VisibilityMPH,Wind Direction,Wind SpeedMPH,Gust SpeedMPH,PrecipitationIn,Events,Conditions,WindDirDegrees,DateUTC
12:53 AM,44.1,39.0,82,29.74,10.0,ENE,5.8,-,N/A,,Overcast,60,2013-04-07 06:53:00
1:53 AM,42.1,37.0,82,29.73,10.0,NNE,9.2,-,N/A,,Partly Cloudy,20,2013-04-07 07:53:00
2:53 AM,41.0,36.0,82,29.71,10.0,NNE,4.6,-,N/A,,Overcast,30,2013-04-07 08:53:00
3:53 AM,41.0,36.0,82,29.71,10.0,Calm,Calm,-,N/A,,Clear,0,2013-04-07 09:53:00
4:53 AM,39.0,35.1,86,29.70,10.0,North,3.5,-,N/A,,Clear,10,2013-04-07 10:53:00
5:53 AM,37.0,34.0,89,29.72,10.0,West,5.8,-,N/A,,Partly Cloudy,280,2013-04-07 11:53:00
6:53 AM,39.0,35.1,86,29.72,10.0,WNW,4.6,-,N/A,,Clear,300,2013-04-07 12:53:00
7:53 AM,44.1,37.0,76,29.72,10.0,WSW,6.9,-,N/A,,Clear,240,2013-04-07 13:53:00
8:53 AM,48.9,35.1,59,29.70,10.0,West,8.1,-,N/A,,Clear,260,2013-04-07 14:53:00
9:53 AM,52.0,33.1,49,29.68,10.0,West,6.9,-,N/A,,Mostly Cloudy,270,2013-04-07 15:53:00
10:53 AM,55.9,30.9,39,29.68,10.0,Variable,6.9,-,N/A,,Partly Cloudy,0,2013-04-07 16:53:00
11:53 AM,57.0,26.1,30,29.65,10.0,WNW,9.2,-,N/A,,Clear,290,2013-04-07 17:53:00
12:53 PM,57.0,23.0,27,29.64,10.0,WNW,6.9,-,N/A,,Clear,290,2013-04-07 18:53:00
1:53 PM,59.0,24.1,26,29.62,10.0,West,4.6,-,N/A,,Mostly Cloudy,260,2013-04-07 19:53:00
2:53 PM,61.0,24.1,24,29.60,10.0,Calm,Calm,-,N/A,,Mostly Cloudy,0,2013-04-07 20:53:00
3:53 PM,62.1,26.1,25,29.57,10.0,West,4.6,-,N/A,,Overcast,270,2013-04-07 21:53:00
4:53 PM,60.1,26.1,27,29.57,10.0,Calm,Calm,-,N/A,,Mostly Cloudy,0,2013-04-07 22:53:00
5:53 PM,59.0,27.0,29,29.58,10.0,ENE,4.6,-,N/A,,Overcast,60,2013-04-07 23:53:00
6:53 PM,57.0,28.9,34,29.59,10.0,SSW,3.5,-,N/A,,Overcast,210,2013-04-08 00:53:00
7:53 PM,55.0,30.0,38,29.58,10.0,ESE,4.6,-,N/A,,Overcast,110,2013-04-08 01:53:00
8:53 PM,53.1,30.0,41,29.60,10.0,Calm,Calm,-,N/A,,Mostly Cloudy,0,2013-04-08 02:53:00
9:53 PM,46.0,36.0,68,29.65,10.0,NNE,23.0,-,N/A,,Overcast,30,2013-04-08 03:53:00
10:53 PM,41.0,33.1,73,29.68,10.0,NNE,24.2,-,N/A,,Overcast,30,2013-04-08 04:53:00
11:53 PM,39.0,30.9,73,29.70,10.0,NNE,19.6,-,N/A,,Overcast,30,2013-04-08 05:53:00